Twin Falls, ID

3:29 AM MDT on April 29, 2017 (GMT -0600)
Joslin Field-Magic Valley Regional

Weather History for KTWF - February, 2014

Change the Weather History Date:

Monday, February 10, 2014

  Actual Average Record
Temperature  
Mean Temperature 41 °F -  
Max Temperature 47 °F 41 °F 56 °F (1992)
Min Temperature 35 °F 22 °F -8 °F (1982)
Degree Days  
Heating Degree Days 24 33  
Month to date heating degree days 358 341  
Since 1 July heating degree days 3880 4009  
Cooling Degree Days 0 0  
Month to date cooling degree days 0 0  
Year to date cooling degree days 0 0  
Moisture  
Dew Point 32 °F    
Average Humidity 75    
Maximum Humidity 89    
Minimum Humidity 60    
Precipitation  
Precipitation 0.02 in 0.03 in 0.18 in (1993)
Month to date precipitation 0.64 0.30  
Year to date precipitation 1.34 1.28  
Sea Level Pressure  
Sea Level Pressure 30.11 in    
Wind  
Wind Speed 10 mph (SSW)    
Max Wind Speed 17 mph    
Max Gust Speed 21 mph    
Visibility 10 miles    
Events Rain    
T = Trace of Precipitation, MM = Missing Value Source: NWS Daily Summary

Daily Weather History Graph

Daily Weather History Graph

Search for Another Location

Airport or City:

Trip Planner

Search our weather history database for the weather conditions in past years. The results will help you decide how hot, cold, wet, or windy it might be!

Date:

Astronomy

Feb. 10, 2014 Rise Set
Actual Time 7:41 AM MST 6:03 PM MST
Civil Twilight 7:12 AM MST 6:32 PM MST
Nautical Twilight 6:38 AM MST 7:06 PM MST
Astronomical Twilight 6:06 AM MST 7:38 PM MST
Moon 2:34 PM MST (2/10) 4:39 AM MST (2/10)
Length of Visible Light 11h 20m
Length of Day
10h 22m
Waxing Gibbous, 85% of the Moon is Illuminated
Feb 10
Waxing Gibbous
Feb 14
Full
Feb 22
Last Quarter
Mar 1
New
Mar 8
First Quarter

Hourly Weather History & Observations

Time (MST) Temp. Windchill Dew Point Humidity Pressure Visibility Wind Dir Wind Speed Gust Speed Precip Events Conditions
12:53 AM 37.0 °F 34.5 °F 32.0 °F 82% 29.98 in 7.0 mi West 3.5 mph - 0.01 in Rain Light Rain
1:16 AM 37.0 °F 32.4 °F 32.0 °F 82% 30.00 in 10.0 mi SSE 5.8 mph - 0.01 in Rain Light Rain
1:53 AM 36.0 °F 31.1 °F 32.0 °F 86% 29.98 in 10.0 mi SW 5.8 mph - 0.01 in   Mostly Cloudy
2:19 AM 36.0 °F 31.1 °F 32.0 °F 86% 30.01 in 10.0 mi SSW 5.8 mph - N/A   Overcast
2:53 AM 36.0 °F 29.6 °F 32.0 °F 86% 29.99 in 10.0 mi SSW 8.1 mph - N/A   Overcast
3:53 AM 36.0 °F 28.5 °F 32.0 °F 86% 30.00 in 10.0 mi SSW 10.4 mph - N/A   Overcast
4:30 AM 36.0 °F 28.5 °F 32.0 °F 86% 30.04 in 10.0 mi South 10.4 mph - N/A   Scattered Clouds
4:53 AM 36.0 °F 29.0 °F 30.9 °F 82% 30.02 in 10.0 mi SSW 9.2 mph - N/A   Clear
5:53 AM 36.0 °F 28.5 °F 30.9 °F 82% 30.05 in 10.0 mi South 10.4 mph - N/A   Clear
6:53 AM 36.0 °F 29.0 °F 30.9 °F 82% 30.08 in 10.0 mi SSW 9.2 mph - N/A   Clear
7:53 AM 35.1 °F 27.9 °F 30.0 °F 82% 30.11 in 10.0 mi SSW 9.2 mph - N/A   Clear
8:53 AM 36.0 °F 27.1 °F 30.0 °F 79% 30.14 in 10.0 mi SSW 13.8 mph - N/A   Clear
9:53 AM 37.0 °F 27.7 °F 32.0 °F 82% 30.16 in 10.0 mi South 16.1 mph - N/A   Clear
10:53 AM 39.9 °F 32.1 °F 33.1 °F 77% 30.16 in 10.0 mi SSW 13.8 mph - N/A   Clear
11:53 AM 43.0 °F 36.4 °F 33.1 °F 68% 30.17 in 10.0 mi WSW 12.7 mph - N/A   Clear
12:53 PM 45.0 °F 38.9 °F 34.0 °F 65% 30.16 in 10.0 mi West 12.7 mph - N/A   Partly Cloudy
1:53 PM 46.0 °F 40.2 °F 34.0 °F 63% 30.15 in 10.0 mi WSW 12.7 mph - N/A   Partly Cloudy
2:53 PM 46.9 °F - 34.0 °F 61% 30.15 in 10.0 mi West 13.8 mph - N/A   Scattered Clouds
3:53 PM 46.0 °F 40.2 °F 34.0 °F 63% 30.16 in 10.0 mi West 12.7 mph - N/A   Clear
4:53 PM 44.1 °F 39.0 °F 34.0 °F 68% 30.17 in 10.0 mi West 9.2 mph - N/A   Clear
5:53 PM 39.9 °F 35.8 °F 33.1 °F 77% 30.19 in 10.0 mi WSW 5.8 mph - N/A   Clear
6:53 PM 35.1 °F 29.3 °F 30.0 °F 82% 30.21 in 10.0 mi SSW 6.9 mph - N/A   Clear
7:53 PM 36.0 °F 29.6 °F 30.9 °F 82% 30.21 in 10.0 mi South 8.1 mph - N/A   Clear
8:53 PM 36.0 °F 28.5 °F 30.9 °F 82% 30.19 in 10.0 mi South 10.4 mph - N/A   Clear
9:53 PM 36.0 °F 28.5 °F 30.0 °F 79% 30.17 in 10.0 mi South 10.4 mph - N/A   Clear
10:53 PM 37.0 °F 29.8 °F 30.0 °F 76% 30.15 in 10.0 mi South 10.4 mph - N/A   Clear
11:53 PM 37.0 °F 30.4 °F 30.0 °F 76% 30.14 in 10.0 mi South 9.2 mph - N/A   Clear